Regional Weather Roundup
Issued by NWS Goodland, KS

Home | Current Version | Previous Version | Text Only | Print | Product List | Glossary Off
Versions: 1 2 3 4 5 6 7 8 9 10 11 12 13 14 15 16 17 18 19 20 21 22 23 24 25 26 27 28 29 30 31 32 33 34 35 36 37 38 39 40 41 42 43 44 45 46 47 48 49 50

000
ASUS43 KGLD 131459
RWRGLD

GOODLAND FORECAST AREA HOURLY WEATHER ROUNDUP
NATIONAL WEATHER SERVICE GOODLAND KS
800 AM MST SAT FEB 13 2016

...OFFICIAL OBSERVATIONS...

CITY           SKY/WX    TMP DP  RH WIND       PRES   REMARKS
GOODLAND KS    FOG       25  24  96 S18G25    30.21F VSB 1/4 WCI  11
HILL CITY KS   CLOUDY    21  15  78 SE14      30.39F WCI   8
IMPERIAL NEB   CLOUDY    25  24  96 S20       30.21F WCI  11
MCCOOK NEB     CLOUDY    21  18  88 SE16      30.31F WCI   7
AKRON CO       CLOUDY    28  28 100 S9        30.08F
BURLINGTON CO  FOG       26  24  92 S17       30.17F VSB 1/2 WCI  13
LIMON CO       FOG       26  26 100 SE7       30.11S VSB 3/4
$$

...UNOFFICIAL OBSERVATIONS...

CITY           SKY/WX    TMP DP  RH WIND       PRES   REMARKS
COLBY KS       CLOUDY    23  23 100 SE16      30.27F FOG     WCI  10
GOVE KS          N/A     22  32 100 MISG        N/A
LENORA KS        N/A     19  32 100 MISG        N/A
NORTON KS      CLOUDY    19  12  73 SE13      30.36F WCI   7
SHARON SPRINGS   N/A     25  24  93 S12         N/A  WCI  14
KIT CARSON CO    N/A     25  23  91 MISG        N/A
YUMA CO          N/A     27  26  94 S7G14       N/A
$$



USA.gov is the U.S. government's official web portal to all federal, state and local government web resources and services.